Regional Weather Roundup
Issued by NWS Newport/Morehead, NC

Current Version | Previous Version | Text Only | Print | Product List | Glossary Off
Versions: 1 2 3 4 5 6 7 8 9 10 11 12 13 14 15 16 17 18 19 20 21 22 23 24 25 26 27 28 29 30 31 32 33 34 35 36 37 38 39 40 41 42 43 44 45 46 47 48 49 50
000 ASUS42 KMHX 271225 RWRMHX WEATHER ROUNDUP FOR EASTERN NORTH CAROLINA NATIONAL WEATHER SERVICE NEWPORT/MOREHEAD CITY NC 800 AM EDT SAT AUG 27 2016 NOTE: "FAIR" INDICATES FEW OR NO CLOUDS BELOW 12,000 FEET WITH NO SIGNIFICANT WEATHER AND/OR OBSTRUCTIONS TO VISIBILITY NCZ015>017-031-032-045>047-102-103-271300- NORTH COAST CITY SKY/WX TMP DP RH WIND PRES REMARKS EDENTON CLOUDY 80 78 94 CALM 30.12R ELIZABETH CITY MOSUNNY 78 74 87 CALM 30.11R KITTY HAWK SUNNY 81 77 88 W5 30.10R MANTEO MOSUNNY 79 75 88 W5 30.11S $$ NCZ045>047-081-094-103-104-271300- CENTRAL COAST CITY SKY/WX TMP DP RH WIND PRES REMARKS FRISCO MOSUNNY 82 73 74 NW3 30.11R $$ NCZ095-097-098-100-101-271300- SOUTHERN COAST CITY SKY/WX TMP DP RH WIND PRES REMARKS BEAUFORT SUNNY 78 74 87 NE3 30.10S CEDAR ISLAND NOT AVBL JACKSONVILLE SUNNY 76 72 87 CALM 30.10S PINEY ISLAND NOT AVBL WILMINGTON SUNNY 76 72 87 N5 30.10R $$ NCZ011>013-027>030-043-044-078>080-089-090>093-098-271300- COASTAL PLAIN CITY SKY/WX TMP DP RH WIND PRES REMARKS AHOSKIE SUNNY 75 74 95 CALM 30.11R CLINTON SUNNY 75 75 99 CALM 30.12R ELIZABETHTOWN SUNNY 75 75 100 CALM 30.11R GOLDSBORO SUNNY 76 76 100 MISG 30.09S GREENVILLE SUNNY 79 73 83 CALM 30.12S HAVELOCK SUNNY 77 72 84 CALM 30.12R KENANSVILLE SUNNY 73 72 94 CALM 30.12R KINSTON SUNNY 77 73 88 CALM 30.12R NEW BERN SUNNY 76 73 91 CALM 30.12R RICHLANDS SUNNY 74 71 91 CALM 30.11S ROCKY MOUNT SUNNY 76 75 97 CALM 30.11R WASHINGTON SUNNY 78 73 84 W3 30.11S WHITEVILLE MOSUNNY 74 72 93 CALM 30.10S $$ AMZ130-135-150-152-154-156-158-170-250-252-270-ANZ085-086-088-633-658-670-271300- MARINE OBSERVATIONS STATION/POSITION TIME TEMP WIND PRES WAVE SWELL AIR SEA DIR/SP/G HT/PER HT/PER (UTC) (F) (DEG/KT/KT) (MB) (FT/S) (FT/S) CHESAPEAKE LIGHT NOT AVBL 64 E VA BEACH 1150 80 80 290/ 6/ 8 1019.1 2/ 7 2/ 7 DUCK 1200 80 63 250/ 7/ 8 1018.9 2 E DUCK 1111 78 N/A 2/11 2/11 OREGON INLET 1200 81 82 260/ 5/ 7 1019.5 13E OREGON INLT 1200 81 N/A 3/10 2/10 HATTERAS CG 1200 81 83 300/ 6/ 6 1019.3 DIAMOND BUOY 1150 82 85 330/ 6/ 10 1019.5 3/10 3/10 CAPE LOOKOUT 1200 82 30/ 4/ 5 1019.0 BEAUFORT LAB 1200 79 81 10/ 4/ 4 1018.7 30 SE NEW RVR IN 1208 83 84 50/ 4/ 8 1019.2 30 SE NEW RVR IN 1125 84 N/A 4/10 2/11 27 SE WRIGHTSVLE 1208 83 84 70/ 6/ 10 1019.3 5 SE WRIGHTSVLE NOT AVBL 225 S CAPE HAT 1150 82 84 50/ 12/ 14 1017.4 4/ 9 3/ 9 41 SE CHARLESTON 1150 83 83 60/ 14/ 16 1017.1 5/10 3/10 $$

USA.gov is the U.S. government's official web portal to all federal, state and local government web resources and services.